FW8903 Weather Reports


time (UTC)temp
F
wind
direction
speed
knots
gust
knots
rain 1hr
in
rain 24hr
in
rain mn
in
humidity
%
barometer
mb
20260507004530 28 75 0.0 0.0 0.00 0.00 0.00 95 1012.6
20260507003028 28 75 0.0 0.0 0.00 0.00 0.00 95 1012.6
20260507001534 28 75 0.0 0.0 0.00 0.00 0.00 95 1012.5
20260507000022 27 75 0.0 0.0 0.00 0.00 0.00 95 1012.4
20260506234521 27 75 0.0 0.0 0.00 0.00 0.00 95 1012.3
20260506233017 27 75 0.0 0.0 0.00 0.00 0.00 95 1012.2
20260506231517 27 75 0.0 0.0 0.00 0.00 0.00 95 1012.2
20260506230016 27 75 0.0 0.0 0.00 0.00 0.00 95 1012.1
20260506224515 27 75 0.0 0.0 0.00 0.00 0.00 95 1012.0
20260506223013 27 75 0.0 0.0 0.00 0.00 0.00 95 1012.0
20260506221512 27 75 0.0 0.0 0.00 0.00 0.00 95 1011.9
20260506220011 27 75 0.0 0.0 0.00 0.00 0.00 95 1011.8
20260506214510 28 75 0.0 0.0 0.00 0.00 0.00 95 1011.8
20260506213011 28 75 0.0 0.0 0.00 0.00 0.00 95 1011.6
20260506211505 27 75 0.0 0.0 0.00 0.00 0.00 95 1011.5
20260506210004 27 75 0.0 0.0 0.00 0.00 0.00 94 1011.5
20260506204502 28 75 0.0 0.0 0.00 0.00 0.00 94 1011.5
20260506203059 28 75 0.0 0.0 0.00 0.00 0.00 92 1011.5
20260506201556 29 75 0.0 0.0 0.00 0.00 0.00 92 1011.3
20260506200051 30 75 0.0 0.0 0.00 0.00 0.00 91 1011.3
20260506194600 31 75 0.0 0.0 0.00 0.00 0.00 91 1011.1
20260506193049 32 75 0.0 0.0 0.00 0.00 0.00 91 1011.0
20260506191544 34 75 0.0 0.0 0.00 0.00 0.00 90 1010.9
20260506190044 34 55 0.0 0.9 0.00 0.00 0.00 89 1010.7
20260506184541 35 82 0.0 0.0 0.00 0.01 0.00 88 1010.5
20260506183040 36 139 0.0 0.0 0.00 0.01 0.00 87 1010.5
20260506181545 36 145 0.0 0.0 0.00 0.01 0.00 86 1010.6
20260506180042 36 95 0.0 0.0 0.00 0.01 0.00 85 1010.5
20260506174537 36 37 0.0 0.9 0.00 0.02 0.00 84 1010.4
20260506173035 36 236 0.0 0.0 0.00 0.02 0.00 84 1010.3
20260506171549 37 68 0.0 3.5 0.00 0.02 0.00 83 1010.3
20260506170038 37 179 0.0 0.0 0.00 0.02 0.00 83 1010.2
20260506164534 37 277 0.0 0.0 0.00 0.02 0.00 81 1010.1
20260506163041 38 346 0.0 3.5 0.00 0.02 0.00 78 1010.1
20260506161529 39 229 0.0 0.0 0.00 0.02 0.00 69 1009.8
20260506160030 40 44 0.0 0.0 0.00 0.02 0.00 68 1009.3
20260506154527 40 1 0.0 1.7 0.00 0.03 0.00 65 1009.3
20260506153027 41 228 0.0 4.3 0.00 0.03 0.00 62 1009.5
20260506151532 43 288 0.0 7.0 0.00 0.03 0.00 52 1009.2
20260506150022 44 246 0.0 0.9 0.00 0.03 0.00 47 1009.0
20260506144521 44 201 0.0 0.0 0.00 0.03 0.00 47 1008.9
20260506143021 44 221 0.0 0.9 0.00 0.03 0.00 47 1008.9
20260506141519 44 233 0.0 1.7 0.00 0.03 0.00 46 1008.9
20260506140023 45 259 0.0 1.7 0.00 0.03 0.00 44 1008.8
20260506134517 45 176 0.0 2.6 0.00 0.03 0.00 46 1008.7
20260506133036 46 314 0.0 2.6 0.00 0.03 0.00 43 1008.6
20260506131520 47 217 0.0 2.6 0.00 0.03 0.00 42 1008.6
20260506130012 46 16 0.0 3.5 0.00 0.03 0.00 42 1008.6
20260506124510 47 222 0.9 4.3 0.00 0.03 0.00 43 1008.5
20260506123007 45 183 0.0 2.6 0.00 0.03 0.00 44 1008.5
20260506121503 44 271 0.0 0.0 0.00 0.03 0.00 47 1008.4
20260506120100 42 212 0.0 0.9 0.00 0.03 0.00 50 1008.4
20260506114604 42 98 0.0 1.7 0.00 0.03 0.00 47 1008.3
20260506113101 42 330 0.0 1.7 0.00 0.03 0.00 47 1008.2
20260506111605 42 47 0.0 1.7 0.00 0.03 0.00 47 1008.1
20260506110054 42 333 0.0 0.9 0.00 0.03 0.00 47 1008.1
20260506104558 42 71 0.0 1.7 0.00 0.03 0.00 50 1007.8
20260506103058 41 34 0.0 1.7 0.00 0.03 0.00 49 1007.8
20260506101552 42 60 0.0 0.0 0.00 0.03 0.00 50 1007.6
20260506100051 41 82 1.7 5.2 0.00 0.03 0.00 51 1007.5
20260506094545 41 72 0.0 2.6 0.00 0.03 0.00 51 1007.3
20260506093044 41 333 0.0 2.6 0.00 0.03 0.00 50 1007.2
20260506091542 42 78 0.0 3.5 0.00 0.03 0.00 50 1006.9
20260506090041 42 200 0.0 6.1 0.00 0.03 0.00 48 1006.8
20260506084542 42 43 0.0 0.9 0.00 0.08 0.00 50 1006.7
20260506083035 41 83 0.0 4.3 0.00 0.08 0.00 55 1006.6
20260506081532 40 245 0.0 2.6 0.00 0.08 0.00 55 1006.5
20260506073024 39 37 0.9 3.5 0.00 0.10 0.00 59 1006.1
20260506071521 38 115 1.7 7.0 0.00 0.10 0.00 60 1005.9
20260506061507 37 90 0.0 1.7 0.00 0.10 0.00 65 1005.4
20260506044613 34 27 0.0 2.6 0.00 0.10 0.00 80 1004.7
20260506043049 33 331 0.0 3.5 0.00 0.10 0.00 81 1004.6
20260506041548 34 63 0.9 4.3 0.00 0.10 0.00 81 1004.4
20260506040047 33 96 0.0 3.5 0.00 0.10 0.00 81 1004.3
20260506034543 33 62 0.0 2.6 0.00 0.10 0.00 83 1004.2
20260506033043 32 61 0.0 2.6 0.00 0.10 0.00 85 1004.1
20260506031541 31 16 0.0 2.6 0.00 0.10 0.00 85 1003.9
20260506030037 31 71 0.0 1.7 0.00 0.10 0.00 86 1003.7
20260506024537 31 321 0.0 1.7 0.00 0.10 0.00 86 1003.6
20260506023046 31 82 0.0 0.9 0.00 0.10 0.00 87 1003.5
20260506021534 31 106 0.0 1.7 0.00 0.10 0.00 87 1003.3
20260506020033 31 65 0.0 1.7 0.00 0.10 0.00 87 1003.2
20260506014528 31 63 0.0 3.5 0.00 0.10 0.00 87 1003.1
20260506013025 32 72 0.0 3.5 0.00 0.10 0.00 87 1002.9
20260506011522 32 97 0.0 3.5 0.00 0.10 0.00 86 1002.8
20260506010041 32 58 0.9 3.5 0.00 0.10 0.00 86 1002.6